Tracking 29090 objects as of 15-Jul-2024
HD Live streaming from Space Station
objects crossing your sky now

SSA

Track SSA now!
10-day predictions
SSA is classified as:


NORAD ID: 13844
Int'l Code: 1983-008E
Perigee: 423.1 km
Apogee: 1,594.7 km
Inclination: 63.3 °
Period: 105.2 minutes
Semi major axis: 7379 km
RCS: Unknown
Launch date: February 9, 1983
Source: United States (US)
Launch site: AIR FORCE WESTERN TEST RANGE (AFWTR)
Your satellite tracking list
Your tracking list is empty




NASA's NSSDC Master Catalog

Two Line Element Set (TLE):
1 13844U 83008E   24196.82636180  .00005409  00000-0  58314-3 0  9997
2 13844  63.3024 152.6746 0793761 122.4944 245.5356 13.69395814262302
Source of the keplerian elements: McCants